User: anonymous
Location: Sperry Observatory
(40.6664°N, 74.3236°W)
Time: 16:09:23
(UTC-04:00)
Language:

UOSAT-12 - Orbit

View from above orbital plane
View from above orbital plane
View from above satellite
View from above satellite

Ground track
Ground track

The orbit data is extracted from the following two-line orbital elements,

1 25693U 99021A   14264.44681920  .00000302  00000-0  58207-4 0  6108
2 25693 064.5569 325.9167 0049755 275.9763 168.3752 14.80038570832162
Epoch (UTC): 21 September 2014 10:43:25
Eccentricity: 0.0049755
inclination: 64.5569°
perigee height: 594 km
apogee height: 664 km
right ascension of ascending node: 325.9167°
argument of perigee: 275.9763°
revolutions per day: 14.80038570
mean anomaly at epoch: 168.3752°
orbit number at epoch: 83216

The dashed part of the orbit path shows where the satellite is in the earth's shadow,  

DLR